GW5459 Weather Reports


time (UTC)temp
C
wind
direction
speed
KPH
gust
KPH
rain 1hr
cm
rain 24hr
cm
rain mn
cm
humidity
%
barometer
mb
20260510204203 16 302 3.2 3.2 0.00 0.00 0.00 28 1010.0
20260510203703 15 312 3.2 3.2 0.00 0.00 0.00 27 1010.0
20260510203203 15 314 1.6 1.6 0.00 0.00 0.00 29 1010.0
20260510202703 15 239 4.8 4.8 0.00 0.00 0.00 27 1010.0
20260510202202 16 19 3.2 3.2 0.00 0.00 0.00 26 1010.0
20260510201702 16 200 3.2 3.2 0.00 0.00 0.00 28 1010.0
20260510201202 16 330 3.2 3.2 0.00 0.00 0.00 26 1010.0
20260510200702 17 318 3.2 3.2 0.00 0.00 0.00 25 1010.0
20260510200202 17 330 4.8 4.8 0.00 0.00 0.00 27 1010.0
20260510195702 18 232 6.4 6.4 0.00 0.00 0.00 25 1010.0
20260510195203 17 226 3.2 3.2 0.00 0.00 0.00 26 1010.0
20260510194703 16 242 3.2 3.2 0.00 0.00 0.00 29 1010.0
20260510194204 16 48 3.2 3.2 0.00 0.00 0.00 28 1011.0
20260510193702 16 342 4.8 4.8 0.00 0.00 0.00 26 1011.0
20260510193203 16 244 3.2 3.2 0.00 0.00 0.00 26 1011.0
20260510192703 15 294 3.2 3.2 0.00 0.00 0.00 27 1011.0
20260510192202 15 348 1.6 1.6 0.00 0.00 0.00 27 1011.0
20260510191703 15 245 4.8 4.8 0.00 0.00 0.00 28 1011.0
20260510191202 15 324 3.2 3.2 0.00 0.00 0.00 27 1011.0
20260510190704 16 249 4.8 4.8 0.00 0.00 0.00 27 1011.0
20260510190202 16 269 4.8 4.8 0.00 0.00 0.00 26 1011.0
20260510185702 16 271 3.2 3.2 0.00 0.00 0.00 28 1011.0
20260510185203 16 324 3.2 3.2 0.00 0.00 0.00 26 1011.0
20260510184702 16 285 9.7 11.3 0.00 0.00 0.00 28 1011.0
20260510184202 16 353 3.2 3.2 0.00 0.00 0.00 24 1010.0
20260510183703 15 237 3.2 3.2 0.00 0.00 0.00 24 1010.0
20260510183202 15 252 3.2 3.2 0.00 0.00 0.00 27 1010.0
20260510182702 15 6 3.2 3.2 0.00 0.00 0.00 27 1011.0
20260510182204 15 236 3.2 3.2 0.00 0.00 0.00 29 1011.0
20260510181702 16 216 3.2 3.2 0.00 0.00 0.00 28 1011.0
20260510181203 16 252 11.3 11.3 0.00 0.00 0.00 27 1010.0
20260510180702 16 209 3.2 3.2 0.00 0.00 0.00 26 1010.0
20260510180202 16 226 6.4 8.0 0.00 0.00 0.00 29 1010.0
20260510175704 15 346 3.2 3.2 0.00 0.00 0.00 27 1010.0
20260510175202 16 321 4.8 4.8 0.00 0.00 0.00 29 1010.0
20260510174703 15 246 4.8 4.8 0.00 0.00 0.00 27 1010.0
20260510174202 15 240 3.2 3.2 0.00 0.00 0.00 27 1010.0
20260510173702 15 306 3.2 3.2 0.00 0.00 0.00 26 1010.0
20260510173204 15 69 3.2 3.2 0.00 0.00 0.00 27 1010.0
20260510172702 15 336 4.8 4.8 0.00 0.00 0.00 27 1011.0
20260510172202 15 328 3.2 3.2 0.00 0.00 0.00 30 1011.0
20260510171704 15 307 3.2 3.2 0.00 0.00 0.00 26 1011.0
20260510171204 15 328 0.0 0.0 0.00 0.00 0.00 25 1010.0
20260510170702 15 264 3.2 3.2 0.00 0.00 0.00 25 1010.0
20260510170202 15 268 3.2 3.2 0.00 0.00 0.00 28 1010.0
20260510165702 15 347 3.2 3.2 0.00 0.00 0.00 25 1011.0
20260510165202 15 240 9.7 9.7 0.00 0.00 0.00 26 1011.0
20260510164702 15 253 9.7 11.3 0.00 0.00 0.00 28 1011.0
20260510164202 15 18 3.2 3.2 0.00 0.00 0.00 27 1010.0
20260510163702 15 36 3.2 3.2 0.00 0.00 0.00 27 1010.0
20260510163203 14 0 3.2 3.2 0.00 0.00 0.00 27 1010.0
20260510162702 15 14 3.2 3.2 0.00 0.00 0.00 27 1011.0
20260510162203 15 0 3.2 3.2 0.00 0.00 0.00 28 1011.0
20260510161712 15 330 3.2 3.2 0.00 0.00 0.00 27 1011.0
20260510161203 15 312 3.2 3.2 0.00 0.00 0.00 26 1010.0
20260510160702 15 253 3.2 3.2 0.00 0.00 0.00 27 1010.0
20260510160204 15 76 3.2 3.2 0.00 0.00 0.00 30 1010.0
20260510155702 15 43 3.2 3.2 0.00 0.00 0.00 28 1010.0
20260510155202 14 307 3.2 3.2 0.00 0.00 0.00 31 1010.0
20260510154702 13 226 3.2 3.2 0.00 0.00 0.00 29 1010.0
20260510154203 14 306 3.2 3.2 0.00 0.00 0.00 31 1010.0
20260510153703 13 354 6.4 6.4 0.00 0.00 0.00 32 1010.0
20260510153201 13 296 3.2 3.2 0.00 0.00 0.00 31 1010.0
20260510152702 13 239 9.7 9.7 0.00 0.00 0.00 32 1010.0
20260510152202 13 256 3.2 3.2 0.00 0.00 0.00 33 1010.0
20260510151702 14 270 0.0 0.0 0.00 0.00 0.00 30 1010.0
20260510151203 13 348 3.2 3.2 0.00 0.00 0.00 32 1010.0
20260510150703 14 258 3.2 3.2 0.00 0.00 0.00 33 1010.0
20260510150202 13 276 4.8 4.8 0.00 0.00 0.00 33 1010.0
20260510145702 13 294 1.6 1.6 0.00 0.00 0.00 33 1010.0
20260510145203 13 250 3.2 3.2 0.00 0.00 0.00 33 1010.0
20260510144703 13 249 3.2 3.2 0.00 0.00 0.00 34 1010.0
20260510144202 13 324 3.2 3.2 0.00 0.00 0.00 37 1010.0
20260510143710 13 263 1.6 1.6 0.00 0.00 0.00 35 1010.0
20260510143202 12 354 3.2 3.2 0.00 0.00 0.00 37 1010.0
20260510142703 12 264 1.6 1.6 0.00 0.00 0.00 36 1010.0
20260510142202 12 303 0.0 0.0 0.00 0.00 0.00 38 1010.0
20260510141703 12 222 0.0 0.0 0.00 0.00 0.00 39 1010.0
20260510141202 12 324 3.2 3.2 0.00 0.00 0.00 37 1010.0
20260510140702 12 324 0.0 0.0 0.00 0.00 0.00 37 1010.0
20260510140202 12 228 6.4 8.0 0.00 0.00 0.00 38 1010.0
20260510135702 13 18 3.2 3.2 0.00 0.00 0.00 38 1010.0
20260510135202 12 211 0.0 0.0 0.00 0.00 0.00 39 1010.0
20260510134702 11 204 1.6 1.6 0.00 0.00 0.00 41 1010.0
20260510134203 11 245 4.8 6.4 0.00 0.00 0.00 41 1009.0
20260510133702 12 6 3.2 3.2 0.00 0.00 0.00 40 1009.0
20260510133202 12 312 3.2 3.2 0.00 0.00 0.00 42 1009.0
20260510132702 11 258 3.2 3.2 0.00 0.00 0.00 42 1009.0
20260510132202 11 348 0.0 0.0 0.00 0.00 0.00 43 1009.0
20260510131703 11 245 0.0 0.0 0.00 0.00 0.00 42 1009.0
20260510131204 11 12 0.0 0.0 0.00 0.00 0.00 43 1009.0
20260510130703 11 252 1.6 1.6 0.00 0.00 0.00 44 1009.0
20260510130203 11 60 3.2 3.2 0.00 0.00 0.00 42 1009.0
20260510125702 11 26 0.0 0.0 0.00 0.00 0.00 46 1009.0
20260510125202 10 43 0.0 0.0 0.00 0.00 0.00 44 1009.0
20260510124702 10 84 1.6 1.6 0.00 0.00 0.00 45 1009.0
20260510124202 10 77 3.2 3.2 0.00 0.00 0.00 45 1009.0
20260510123703 10 306 3.2 3.2 0.00 0.00 0.00 47 1009.0
20260510123202 10 12 3.2 3.2 0.00 0.00 0.00 48 1009.0
20260510122702 9 353 3.2 3.2 0.00 0.00 0.00 47 1009.0
20260510122207 10 90 4.8 4.8 0.00 0.00 0.00 49 1009.0
20260510121703 10 354 3.2 3.2 0.00 0.00 0.00 50 1009.0
20260510121204 9 42 0.0 0.0 0.00 0.00 0.00 50 1008.0
20260510120702 9 42 0.0 0.0 0.00 0.00 0.00 51 1008.0
20260510120202 9 339 3.2 3.2 0.00 0.00 0.00 52 1008.0
20260510115703 9 318 1.6 1.6 0.00 0.00 0.00 52 1008.0
20260510115203 8 348 3.2 3.2 0.00 0.00 0.00 54 1008.0
20260510114704 8 42 3.2 3.2 0.00 0.00 0.00 56 1008.0
20260510114202 8 6 0.0 0.0 0.00 0.00 0.00 59 1008.0
20260510113703 8 18 1.6 1.6 0.00 0.00 0.00 56 1008.0
20260510113202 8 18 0.0 0.0 0.00 0.00 0.00 59 1008.0
20260510112702 7 354 0.0 0.0 0.00 0.00 0.00 61 1008.0
20260510112202 7 354 0.0 0.0 0.00 0.00 0.00 66 1008.0
20260510111702 6 33 3.2 3.2 0.00 0.00 0.00 67 1008.0
20260510111202 6 354 0.0 0.0 0.00 0.00 0.00 74 1008.0
20260510110703 5 354 0.0 0.0 0.00 0.00 0.00 75 1008.0
20260510110202 5 354 0.0 0.0 0.00 0.00 0.00 77 1008.0
20260510105702 4 186 0.0 0.0 0.00 0.00 0.00 79 1008.0
20260510105203 4 204 0.0 0.0 0.00 0.00 0.00 81 1008.0
20260510104702 3 186 0.0 0.0 0.00 0.00 0.00 81 1008.0
20260510104202 3 186 0.0 0.0 0.00 0.00 0.00 80 1007.0
20260510103702 4 186 0.0 0.0 0.00 0.00 0.00 80 1007.0
20260510103202 4 186 0.0 0.0 0.00 0.00 0.00 80 1007.0
20260510102702 4 186 0.0 0.0 0.00 0.00 0.00 79 1007.0
20260510102206 4 186 0.0 0.0 0.00 0.00 0.00 78 1007.0
20260510101702 5 186 0.0 0.0 0.00 0.00 0.00 77 1007.0
20260510101202 5 192 0.0 0.0 0.00 0.00 0.00 76 1007.0
20260510100703 5 204 0.0 0.0 0.00 0.00 0.00 74 1007.0
20260510100202 5 300 0.0 0.0 0.00 0.00 0.00 72 1007.0
20260510095703 5 348 0.0 0.0 0.00 0.00 0.00 71 1007.0
20260510095202 6 354 0.0 0.0 0.00 0.00 0.00 70 1007.0
20260510094702 6 354 0.0 0.0 0.00 0.00 0.00 70 1007.0
20260510094203 6 354 0.0 0.0 0.00 0.00 0.00 70 1007.0
20260510093702 6 354 0.0 0.0 0.00 0.00 0.00 69 1007.0
20260510093203 5 354 0.0 0.0 0.00 0.00 0.00 70 1007.0
20260510092702 5 0 0.0 0.0 0.00 0.00 0.00 72 1007.0
20260510092202 6 1 0.0 0.0 0.00 0.00 0.00 71 1007.0
20260510091703 5 1 0.0 0.0 0.00 0.00 0.00 72 1007.0
20260510091203 5 1 0.0 0.0 0.00 0.00 0.00 73 1006.0
20260510090703 5 1 0.0 0.0 0.00 0.00 0.00 75 1006.0
20260510090203 5 1 0.0 0.0 0.00 0.00 0.00 74 1006.0
20260510085702 5 1 0.0 0.0 0.00 0.00 0.00 74 1006.0
20260510085202 6 1 0.0 0.0 0.00 0.00 0.00 73 1006.0
20260510084702 6 1 0.0 0.0 0.00 0.00 0.00 73 1006.0
20260510084202 6 1 0.0 0.0 0.00 0.00 0.00 72 1006.0
20260510083702 6 1 0.0 0.0 0.00 0.00 0.00 70 1006.0
20260510083203 6 1 0.0 0.0 0.00 0.00 0.00 70 1006.0
20260510082702 7 0 0.0 0.0 0.00 0.00 0.00 69 1005.0
20260510082202 7 0 0.0 0.0 0.00 0.00 0.00 67 1005.0
20260510081705 7 0 0.0 0.0 0.00 0.00 0.00 66 1005.0
20260510081203 7 0 0.0 0.0 0.00 0.00 0.00 65 1005.0
20260510080703 8 0 0.0 0.0 0.00 0.00 0.00 63 1005.0
20260510080202 8 0 0.0 0.0 0.00 0.00 0.00 62 1005.0
20260510075702 8 0 0.0 0.0 0.00 0.00 0.00 60 1005.0
20260510075203 8 348 0.0 0.0 0.00 0.00 0.00 59 1005.0
20260510074702 8 348 4.8 4.8 0.00 0.00 0.00 59 1005.0
20260510074202 8 65 3.2 3.2 0.00 0.00 0.00 57 1004.0
20260510073702 8 335 4.8 4.8 0.00 0.00 0.00 59 1004.0
20260510073202 8 340 0.0 0.0 0.00 0.00 0.00 61 1004.0
20260510072703 8 18 0.0 0.0 0.00 0.00 0.00 60 1004.0
20260510072202 8 18 3.2 3.2 0.00 0.00 0.00 63 1004.0
20260510071703 8 6 0.0 0.0 0.00 0.00 0.00 63 1004.0
20260510071202 8 18 0.0 0.0 0.00 0.00 0.00 65 1004.0
20260510070704 8 18 0.0 0.0 0.00 0.00 0.00 65 1004.0
20260510070203 8 324 0.0 0.0 0.00 0.00 0.00 67 1004.0
20260510065702 8 324 0.0 0.0 0.00 0.00 0.00 66 1004.0
20260510065202 7 294 0.0 0.0 0.00 0.00 0.00 69 1004.0
20260510064703 8 294 0.0 0.0 0.00 0.00 0.00 69 1004.0
20260510064202 8 294 0.0 0.0 0.00 0.00 0.00 67 1004.0
20260510063704 8 294 0.0 0.0 0.00 0.00 0.00 66 1004.0
20260510063202 8 294 0.0 0.0 0.00 0.00 0.00 65 1004.0
20260510062702 8 294 0.0 0.0 0.00 0.00 0.00 63 1004.0
20260510062202 9 294 0.0 0.0 0.00 0.00 0.00 62 1004.0
20260510061702 9 294 0.0 0.0 0.00 0.00 0.00 62 1004.0
20260510061203 10 294 0.0 0.0 0.00 0.00 0.00 60 1003.0
20260510060702 10 294 0.0 0.0 0.00 0.00 0.00 58 1003.0
20260510060203 10 294 0.0 0.0 0.00 0.00 0.00 57 1003.0
20260510055702 10 294 0.0 0.0 0.00 0.00 0.00 56 1003.0
20260510055202 11 294 0.0 0.0 0.00 0.00 0.00 55 1003.0
20260510054703 11 342 3.2 3.2 0.00 0.00 0.00 55 1003.0
20260510054202 11 348 0.0 0.0 0.00 0.00 0.00 55 1003.0
20260510053702 11 348 3.2 3.2 0.00 0.00 0.00 54 1003.0
20260510053202 11 348 0.0 0.0 0.00 0.00 0.00 55 1003.0
20260510052702 11 346 1.6 1.6 0.00 0.00 0.00 56 1003.0
20260510052203 11 330 3.2 3.2 0.00 0.00 0.00 56 1003.0
20260510051702 11 100 0.0 0.0 0.00 0.00 0.00 56 1003.0
20260510051203 11 18 0.0 0.0 0.00 0.00 0.00 55 1002.0
20260510050702 12 24 3.2 3.2 0.00 0.00 0.00 54 1002.0
20260510050202 12 336 0.0 0.0 0.00 0.00 0.00 56 1002.0
20260510045702 12 60 0.0 0.0 0.00 0.00 0.00 56 1002.0
20260510045202 12 0 3.2 3.2 0.00 0.00 0.00 57 1002.0
20260510044702 12 36 3.2 3.2 0.00 0.00 0.00 57 1002.0
20260510044203 12 24 3.2 3.2 0.00 0.00 0.00 57 1002.0
20260510043702 12 48 3.2 3.2 0.00 0.00 0.00 56 1002.0
20260510043203 12 72 3.2 3.2 0.00 0.00 0.00 57 1002.0
20260510042702 12 60 0.0 0.0 0.00 0.00 0.00 55 1002.0
20260510042202 12 324 0.0 0.0 0.00 0.00 0.00 56 1002.0
20260510041702 12 324 0.0 0.0 0.00 0.00 0.00 54 1002.0
20260510041203 12 324 0.0 0.0 0.00 0.00 0.00 53 1001.0
20260510040704 13 324 0.0 0.0 0.00 0.00 0.00 52 1001.0
20260510040203 13 324 0.0 0.0 0.00 0.00 0.00 51 1001.0
20260510035703 13 324 0.0 0.0 0.00 0.00 0.00 50 1001.0
20260510035204 13 30 0.0 0.0 0.00 0.00 0.00 50 1001.0
20260510034702 13 30 3.2 3.2 0.00 0.00 0.00 49 1001.0
20260510034202 14 30 3.2 3.2 0.00 0.00 0.00 48 1001.0
20260510033704 14 341 0.0 0.0 0.00 0.00 0.00 47 1001.0
20260510033203 14 252 1.6 1.6 0.00 0.00 0.00 48 1001.0
20260510032703 15 252 0.0 0.0 0.00 0.00 0.00 48 1001.0
20260510032202 15 12 3.2 3.2 0.00 0.00 0.00 47 1001.0
20260510031702 15 348 0.0 0.0 0.00 0.00 0.00 46 1001.0
20260510031203 15 6 3.2 3.2 0.00 0.00 0.00 46 1001.0
20260510030704 15 18 1.6 1.6 0.00 0.00 0.00 45 1001.0
20260510030203 15 294 3.2 3.2 0.00 0.00 0.00 44 1001.0
20260510025702 15 328 0.0 0.0 0.00 0.00 0.00 46 1000.0
20260510025202 15 336 0.0 0.0 0.00 0.00 0.00 44 1000.0
20260510024702 15 320 3.2 3.2 0.00 0.00 0.00 43 1000.0
20260510024202 16 306 4.8 4.8 0.00 0.00 0.00 43 1000.0
20260510023702 16 223 8.0 8.0 0.00 0.00 0.00 42 1000.0
20260510023203 16 309 3.2 3.2 0.00 0.00 0.00 43 1000.0
20260510022705 16 234 3.2 3.2 0.00 0.00 0.00 45 999.0
20260510022202 16 318 3.2 3.2 0.00 0.00 0.00 44 999.0
20260510021702 16 348 4.8 4.8 0.00 0.00 0.00 47 999.0
20260510021203 16 330 3.2 3.2 0.00 0.00 0.00 48 999.0
20260510020702 16 306 0.0 0.0 0.00 0.00 0.00 47 999.0
20260510020202 16 300 0.0 0.0 0.00 0.00 0.00 48 999.0
20260510015702 16 294 0.0 0.0 0.00 0.00 0.00 48 998.0
20260510015202 16 324 0.0 0.0 0.00 0.00 0.00 48 998.0
20260510014703 16 330 3.2 3.2 0.00 0.00 0.00 49 998.0
20260510014203 15 300 3.2 3.2 0.00 0.00 0.00 50 998.0
20260510013702 15 300 0.0 0.0 0.00 0.00 0.00 53 998.0
20260510013202 15 300 0.0 0.0 0.00 0.00 0.00 55 998.0
20260510012702 15 300 0.0 0.0 0.00 0.00 0.00 53 998.0
20260510012203 15 300 0.0 0.0 0.00 0.00 0.00 51 998.0
20260510011702 15 300 0.0 0.0 0.00 0.00 0.00 50 998.0
20260510011203 16 300 0.0 0.0 0.00 0.00 0.00 49 997.0
20260510010702 16 300 0.0 0.0 0.00 0.00 0.00 48 997.0
20260510010203 16 300 0.0 0.0 0.00 0.00 0.00 47 997.0
20260510005702 16 300 0.0 0.0 0.00 0.00 0.00 47 997.0
20260510005203 17 294 0.0 0.0 0.00 0.00 0.00 44 997.0
20260510004702 17 258 0.0 0.0 0.00 0.00 0.00 44 997.0
20260510004202 17 258 3.2 3.2 0.00 0.00 0.00 43 997.0
20260510003702 17 312 0.0 0.0 0.00 0.00 0.00 43 997.0
20260510003203 18 308 0.0 0.0 0.00 0.00 0.00 42 997.0
20260510002702 18 330 3.2 3.2 0.00 0.00 0.00 40 997.0
20260510001712 18 240 0.0 0.0 0.00 0.00 0.00 41 997.0
20260510001203 18 240 3.2 3.2 0.00 0.00 0.00 39 997.0
20260510000703 18 296 3.2 3.2 0.00 0.00 0.00 39 997.0
20260510000204 19 238 3.2 3.2 0.00 0.00 0.00 38 997.0
20260509235702 19 282 3.2 3.2 0.00 0.00 0.00 37 996.0
20260509235202 19 251 3.2 3.2 0.00 0.00 0.00 38 996.0
20260509234703 19 228 4.8 6.4 0.00 0.00 0.00 37 996.0
20260509234202 19 246 4.8 4.8 0.00 0.00 0.00 37 997.0
20260509233702 19 282 4.8 4.8 0.00 0.00 0.00 36 997.0
20260509233202 19 234 8.0 9.7 0.00 0.00 0.00 37 997.0
20260509232703 20 249 11.3 11.3 0.00 0.00 0.00 37 996.0
20260509232202 20 251 3.2 3.2 0.00 0.00 0.00 37 996.0
20260509231703 20 300 3.2 3.2 0.00 0.00 0.00 35 996.0
20260509231202 20 182 3.2 3.2 0.00 0.00 0.00 35 996.0
20260509230702 20 110 4.8 4.8 0.00 0.00 0.00 35 996.0
20260509230203 20 240 6.4 6.4 0.00 0.00 0.00 35 996.0
20260509225703 20 226 4.8 4.8 0.00 0.00 0.00 34 996.0
20260509225202 20 265 8.0 9.7 0.00 0.00 0.00 34 996.0
20260509224702 20 307 3.2 3.2 0.00 0.00 0.00 34 996.0
20260509224202 20 14 4.8 4.8 0.00 0.00 0.00 34 996.0
20260509223703 20 256 4.8 4.8 0.00 0.00 0.00 35 996.0
20260509223203 21 264 4.8 4.8 0.00 0.00 0.00 34 996.0
20260509222702 20 186 6.4 8.0 0.00 0.00 0.00 34 995.0
20260509222202 20 269 4.8 4.8 0.00 0.00 0.00 34 995.0
20260509221702 21 346 3.2 3.2 0.00 0.00 0.00 34 995.0
20260509221202 21 228 9.7 11.3 0.00 0.00 0.00 31 995.0
20260509220703 21 208 9.7 11.3 0.00 0.00 0.00 32 995.0
20260509220204 21 157 6.4 8.0 0.00 0.00 0.00 34 995.0
20260509215702 21 295 3.2 3.2 0.00 0.00 0.00 34 995.0
20260509215202 21 234 4.8 4.8 0.00 0.00 0.00 35 995.0
20260509214702 21 42 3.2 3.2 0.00 0.00 0.00 37 995.0
20260509214202 21 246 4.8 6.4 0.00 0.00 0.00 36 995.0
20260509213703 21 256 14.5 16.1 0.00 0.00 0.00 37 995.0
20260509213204 21 256 6.4 6.4 0.00 0.00 0.00 37 995.0
20260509212704 21 235 6.4 8.0 0.00 0.00 0.00 39 995.0
20260509212202 21 307 1.6 1.6 0.00 0.00 0.00 39 995.0
20260509211702 20 228 4.8 6.4 0.00 0.00 0.00 39 995.0
20260509211202 20 359 3.2 3.2 0.00 0.00 0.00 39 995.0
20260509210702 20 259 4.8 4.8 0.00 0.00 0.00 41 995.0
20260509210202 20 247 0.0 0.0 0.00 0.00 0.00 43 995.0
20260509205702 20 240 4.8 4.8 0.00 0.00 0.00 43 995.0
20260509205202 20 268 6.4 6.4 0.00 0.00 0.00 42 995.0
20260509204703 20 342 4.8 4.8 0.00 0.00 0.00 45 995.0